This demonstration page uses our WeatherBlox Daily Observations layout. Learn more.

Left ArrowRight Arrow

38.83388, -104.82136

Hourly Observations for January 22, 2015

Temp ( °F °C ) Dew Point ( °F °C ) Humidity (%) Winds ( mph kmh ) Pressure ( in mb ) Visibility ( mi km ) Precip ( " mm )
12:56 am 00:56 Mostly Cloudy 17 -8.5 11 -11.5 79 79 SSW 5 7 30.15 1021 10 16 N/A
1:56 am 01:56 Mostly Cloudy 17 -8.5 10 -12.4 74 74 S 3 6 30.15 1021 10 16 N/A
2:56 am 02:56 Clear 16 -8.8 9 -12.6 74 74 SW 5 7 30.16 1021 10 16 N/A
3:37 am 03:37 Clear with Light Snow Showers 18 -8 9 -13 68 68 SSW 8 13 30.18 1022 10 16 N/A
3:49 am 03:49 Clear 18 -8 9 -13 68 68 SW 5 7 30.18 1022 10 16 N/A
3:56 am 03:56 Clear 17 -8.4 7 -13.7 66 66 undefined N/A 30.14 1021 10 16 N/A
4:56 am 04:56 Clear 14 -10.2 8 -13.2 79 79 NW 7 11 30.15 1021 10 16 0.00 0.00
5:56 am 05:56 Clear 14 -10.2 8 -13.5 77 77 WNW 3 6 30.15 1021 10 16 N/A
6:56 am 06:56 Clear 14 -10.1 7 -13.7 75 75 WNW 5 7 30.16 1021 10 16 N/A
7:56 am 07:56 Sunny 16 -8.8 8 -13.6 69 69 W 2 4 30.17 1022 10 16 N/A
8:56 am 08:56 Sunny 20 -6.9 11 -11.4 71 71 SE 3 6 30.14 1021 10 16 0.01 0.25
9:56 am 09:56 Sunny 20 -6.6 12 -11.3 70 70 ESE 3 6 30.15 1021 10 16 0.07 1.78
10:56 am 10:56 Sunny 22 -5.8 12 -11.1 67 67 ENE 2 4 30.15 1021 10 16 0.09 2.29
11:56 am 11:56 Sunny 22 -5.3 14 -9.8 71 71 SE 1 2 30.09 1019 10 16 0.06 1.52
12:56 pm 12:56 Sunny 23 -4.9 15 -9.5 70 70 SE 5 7 30.09 1019 10 16 N/A
1:56 pm 13:56 Sunny 24 -4.7 18 -7.9 79 79 SE 2 4 30.06 1018 10 16 0.00 0.00
2:56 pm 14:56 Sunny 23 -4.9 17 -8.2 78 78 SE 5 7 30.05 1018 10 16 N/A
3:56 pm 15:56 Sunny 21 -6.1 18 -8 87 87 SE 1 2 30.05 1018 10 16 N/A
4:56 pm 16:56 Sunny 22 -5.8 17 -8.5 81 81 E 1 2 30.06 1018 10 16 0.00 0.00
5:56 pm 17:56 Clear 22 -5.4 16 -9 76 76 W 1 2 30.06 1018 10 16 N/A
6:56 pm 18:56 Clear 23 -5 14 -10.1 68 68 WNW 5 7 30.06 1018 10 16 N/A
7:56 pm 19:56 Clear 24 -4.6 13 -10.8 62 62 WNW 5 7 30.03 1017 10 16 N/A
8:56 pm 20:56 Clear 23 -5.2 12 -11.1 64 64 WNW 2 4 30.01 1016 10 16 N/A
9:56 pm 21:56 Clear 25 -3.9 11 -11.4 56 56 NW 8 13 29.98 1015 10 16 N/A
10:56 pm 22:56 Clear 26 -3.3 10 -12.3 50 50 NW 5 7 29.97 1015 10 16 N/A
11:56 pm 23:56 Clear 26 -3.3 9 -12.6 49 49 NW 7 11 29.97 1015 10 16 N/A

Powered by AerisWeather